Погода в Жуковском

Россия / Московская область     55°35′50″N   38°07′11″E
темп.,
°C
ветер,
м/с
пор.,
м/с
влажн.,
%
обл.,
%
осадки,
мм/ч
давл.,
гПа
погр.,
м
16 октября, сб
сб1600:00+7юз7147489 0.0 1016715
03:00+7юз71375100 0.0 1014619
06:00+6ююз6137998 0.0 1014427
09:00+8ююз71570100 0.0 1013594
12:00+10ююз91661100 0.0 1013945
15:00+11юз81457100 0.0 10111307
18:00+9зюз71372100 0.1 10121404
21:00+7зюз5108395 0.1 1013896
17 октября, вс
вс1700:00+5юз410844 0.0 1014238
03:00+4юз512865 0.0 1014307
06:00+4юз5138610 0.0 1013355
09:00+6юз61282100 0.0 1013452
12:00+9зюз71168100 0.0 1013721
15:00+10зюз6106967 0.0 1012979
18:00+8зюз51075100 0.0 1012521
21:00+7юз4978100 0.1 1012479
18 октября, пн
пн1800:00+7зюз598069 0.1 1011423
03:00+5юз5108984 0.1 1011310
06:00+4юз5129415 0.0 1010354
09:00+6юз61182100 0.0 1008517
12:00+7зюз71277100 0.0 10081033
15:00+6зсз686914 0.8 1009900
18:00+3зюз49805 0.0 1010209
21:00+3зюз410835 0.0 1010240
19 октября, вт
вт1900:00+2з48935 0.0 1011215
03:00+1з489472 0.0 1011197
06:00+2зсз478991 0.0 1012457
09:00+3сз577939 0.1 1014773
12:00+3сз5667100 0.0 1015842
15:00+4сз4662100 0.1 10151009
18:00+3сз377099 0.1 1017312
21:00+2зсз4779100 0.3 1018335
20 октября, ср
ср2000:00+1зсз378693 0.1 1019238
03:00+1сз479197 0.1 1020476
06:00+2сз4777100 0.0 1021589
09:00+1сз5683100 0.1 1023583
12:00+3зсз346480 0.0 1023984
15:00+4зюз465397 0.1 10221226
18:00+1ююз3868100 0.0 1021201
21:00+1ююз51269100 0.0 1019490